Location: Newark
(44.6028°N, 124.0883°W)
Time: 17:13:35
(UTC+00:00)

Vanguard 1 - Pass Details

Date: 25 October 2019
Orbit: 652 x 3831 km, 34.2° (Epoch: 21 November)

Event Time Altitude Azimuth Distance (km) Brightness Sun altitude
Rises 04:32:37 0° 259° (W) 4,102 14.0 -35.1°
Reaches altitude 10° 04:34:59 10° 254° (WSW) 3,416 13.4 -35.5°
Maximum altitude 04:43:35 49° 182° (S) 2,445 11.7 -36.9°
Enters shadow 04:43:46 49° 179° (S) 2,463 11.7 -36.9°
Drops below altitude 10° 04:59:05 10° 115° (ESE) 5,962 - -39.4°
Sets 05:04:49 0° 111° (ESE) 7,388 - -40.4°
